When you browse on this site, cookies collect data to enhance your experience and personalize the content and advertising you see.
Visit our Privacy Policy to learn more. By continuing to use the site, you agree to this use of cookies and data.
  • In Lithuania
  • List of Countries
  • For 7 days
  • Water Temperature
  • Satellite Maps
  • Weather Map
  • Weather Widgets
  • user-avatar
    Login

    Hourly Weather Wiktoria

    Today, 20 March, Wednesday

    Time Temperature Precipitation Wind Pressure Humidity
    00:00 +20°C° 0 mm 3 mps 748 mmHg 84%
    01:00 +20°C° 0 mm 3 mps 748 mmHg 88%
    02:00 +19°C° 0 mm 3 mps 748 mmHg 89%
    03:00 +19°C° 0 mm 3 mps 748 mmHg 89%
    04:00 +18°C° 0 mm 2 mps 748 mmHg 91%
    05:00 +18°C° 0 mm 2 mps 748 mmHg 90%
    06:00 +18°C° 0 mm 2 mps 748 mmHg 89%
    07:00 +19°C° 0 mm 2 mps 749 mmHg 88%
    08:00 +21°C° 0 mm 2 mps 749 mmHg 76%
    09:00 +25°C° 0 mm 2 mps 749 mmHg 65%
    10:00 +27°C° 0 mm 2 mps 749 mmHg 55%
    11:00 +29°C° 0 mm 1 mps 749 mmHg 48%
    12:00 +31°C° 0 mm 1 mps 748 mmHg 40%
    13:00 +31°C° 0 mm 0 mps 748 mmHg 33%
    14:00 +33°C° 0 mm 1 mps 748 mmHg 31%
    15:00 +33°C° 0 mm 1 mps 747 mmHg 30%
    16:00 +32°C° 0 mm 2 mps 747 mmHg 32%
    17:00 +31°C° 0 mm 2 mps 747 mmHg 37%
    18:00 +29°C° 0 mm 3 mps 747 mmHg 41%
    19:00 +27°C° 0 mm 3 mps 748 mmHg 46%
    20:00 +26°C° 0 mm 4 mps 748 mmHg 55%
    21:00 +25°C° 0 mm 4 mps 748 mmHg 64%
    22:00 +22°C° 0 mm 4 mps 748 mmHg 73%
    23:00 +22°C° 0 mm 4 mps 749 mmHg 77%

    Tomorrow, 21 March, Thursday

    Time Temperature Precipitation Wind Pressure Humidity
    00:00 +21°C° 0 mm 3 mps 749 mmHg 81%
    01:00 +20°C° 0 mm 3 mps 749 mmHg 84%
    02:00 +20°C° 0 mm 2 mps 749 mmHg 85%
    03:00 +20°C° 0 mm 2 mps 749 mmHg 86%
    04:00 +19°C° 0 mm 2 mps 748 mmHg 87%
    05:00 +19°C° 0 mm 2 mps 749 mmHg 85%
    06:00 +19°C° 0 mm 2 mps 749 mmHg 84%
    07:00 +20°C° 0 mm 2 mps 749 mmHg 83%
    08:00 +23°C° 0 mm 2 mps 750 mmHg 73%
    09:00 +25°C° 0 mm 2 mps 750 mmHg 63%
    10:00 +28°C° 0 mm 2 mps 750 mmHg 53%
    11:00 +29°C° 0 mm 2 mps 749 mmHg 47%
    12:00 +31°C° 0 mm 1 mps 749 mmHg 40%
    13:00 +33°C° 0 mm 1 mps 749 mmHg 34%
    14:00 +33°C° 0 mm 1 mps 748 mmHg 32%
    15:00 +33°C° 0 mm 1 mps 748 mmHg 30%
    16:00 +33°C° 0 mm 1 mps 747 mmHg 28%
    17:00 +32°C° 0 mm 2 mps 747 mmHg 33%
    18:00 +30°C° 0 mm 3 mps 748 mmHg 37%
    19:00 +28°C° 0 mm 4 mps 748 mmHg 41%
    20:00 +27°C° 0 mm 4 mps 748 mmHg 48%
    21:00 +26°C° 0 mm 4 mps 749 mmHg 55%
    22:00 +25°C° 0 mm 4 mps 749 mmHg 62%
    23:00 +23°C° 0.8 mm 4 mps 749 mmHg 67%

    Day after tomorrow, 22 March, Friday

    Time Temperature Precipitation Wind Pressure Humidity
    00:00 +22°C° 0.8 mm 4 mps 749 mmHg 72%
    01:00 +21°C° 0.8 mm 3 mps 749 mmHg 77%
    02:00 +21°C° 0.3 mm 3 mps 749 mmHg 77%
    03:00 +21°C° 0.3 mm 3 mps 749 mmHg 78%
    04:00 +21°C° 0.3 mm 3 mps 749 mmHg 78%
    05:00 +21°C° 1 mm 3 mps 749 mmHg 79%
    06:00 +21°C° 1 mm 3 mps 749 mmHg 80%
    07:00 +20°C° 1 mm 3 mps 750 mmHg 81%
    08:00 +22°C° 0.1 mm 4 mps 750 mmHg 76%
    09:00 +23°C° 0.1 mm 5 mps 750 mmHg 70%
    10:00 +26°C° 0.1 mm 6 mps 750 mmHg 64%
    11:00 +27°C° 0 mm 5 mps 749 mmHg 57%
    12:00 +29°C° 0 mm 5 mps 749 mmHg 51%
    13:00 +32°C° 0 mm 5 mps 748 mmHg 45%
    14:00 +32°C° 0 mm 4 mps 748 mmHg 43%
    15:00 +33°C° 0 mm 4 mps 747 mmHg 41%
    16:00 +33°C° 0 mm 3 mps 747 mmHg 39%
    17:00 +30°C° 0 mm 3 mps 747 mmHg 44%
    18:00 +29°C° 0 mm 4 mps 747 mmHg 49%
    19:00 +27°C° 0 mm 4 mps 747 mmHg 54%
    20:00 +26°C° 0.4 mm 4 mps 747 mmHg 58%
    21:00 +25°C° 0.4 mm 4 mps 747 mmHg 62%
    22:00 +23°C° 0.4 mm 4 mps 748 mmHg 66%
    23:00 +23°C° 0 mm 4 mps 748 mmHg 65%

    23 March, Saturday

    Time Temperature Precipitation Wind Pressure Humidity
    00:00 +22°C° 0 mm 5 mps 747 mmHg 65%
    01:00 +22°C° 0 mm 5 mps 747 mmHg 65%
    02:00 +22°C° 0 mm 5 mps 747 mmHg 66%
    03:00 +21°C° 0 mm 5 mps 746 mmHg 67%
    04:00 +21°C° 0 mm 5 mps 746 mmHg 67%
    05:00 +21°C° 0.1 mm 5 mps 746 mmHg 67%
    06:00 +21°C° 0.1 mm 6 mps 746 mmHg 66%
    07:00 +21°C° 0.1 mm 6 mps 746 mmHg 66%
    08:00 +22°C° 0 mm 7 mps 746 mmHg 63%
    09:00 +23°C° 0 mm 7 mps 745 mmHg 60%
    10:00 +24°C° 0 mm 8 mps 745 mmHg 57%
    11:00 +28°C° 0 mm 8 mps 744 mmHg 49%
    12:00 +32°C° 0 mm 8 mps 744 mmHg 40%
    13:00 +34°C° 0 mm 8 mps 743 mmHg 32%
    14:00 +35°C° 0 mm 7 mps 742 mmHg 27%
    15:00 +38°C° 0 mm 6 mps 742 mmHg 23%
    16:00 +39°C° 0 mm 6 mps 741 mmHg 19%
    17:00 +36°C° 0 mm 5 mps 742 mmHg 22%
    18:00 +34°C° 0 mm 5 mps 742 mmHg 25%
    19:00 +32°C° 0 mm 5 mps 742 mmHg 28%
    20:00 +30°C° 0 mm 4 mps 743 mmHg 29%
    21:00 +29°C° 0 mm 4 mps 744 mmHg 30%
    22:00 +28°C° 0 mm 4 mps 744 mmHg 32%
    23:00 +26°C° 0 mm 3 mps 745 mmHg 38%

    24 March, Sunday

    Time Temperature Precipitation Wind Pressure Humidity
    00:00 +25°C° 0 mm 3 mps 745 mmHg 44%
    01:00 +24°C° 0 mm 2 mps 745 mmHg 50%
    02:00 +24°C° 0 mm 1 mps 745 mmHg 54%
    03:00 +23°C° 0 mm 1 mps 745 mmHg 58%
    04:00 +21°C° 0 mm 0 mps 745 mmHg 63%
    05:00 +21°C° 0 mm 0 mps 745 mmHg 63%
    06:00 +21°C° 0 mm 0 mps 745 mmHg 63%
    07:00 +20°C° 0 mm 0 mps 746 mmHg 63%
    08:00 +24°C° 0 mm 1 mps 746 mmHg 57%
    09:00 +25°C° 0 mm 2 mps 746 mmHg 50%
    10:00 +27°C° 0 mm 3 mps 746 mmHg 44%
    11:00 +28°C° 0 mm 3 mps 745 mmHg 43%
    12:00 +29°C° 0 mm 4 mps 745 mmHg 41%
    13:00 +29°C° 0 mm 5 mps 744 mmHg 40%
    14:00 +30°C° 0 mm 5 mps 744 mmHg 39%
    15:00 +30°C° 0 mm 5 mps 743 mmHg 39%
    16:00 +30°C° 0 mm 6 mps 742 mmHg 39%
    17:00 +29°C° 0.6 mm 6 mps 742 mmHg 47%
    18:00 +27°C° 0.6 mm 6 mps 742 mmHg 55%
    19:00 +26°C° 0.6 mm 6 mps 742 mmHg 63%
    20:00 +24°C° 0.5 mm 7 mps 742 mmHg 67%
    21:00 +23°C° 0.5 mm 7 mps 742 mmHg 71%
    22:00 +22°C° 0.5 mm 8 mps 742 mmHg 76%
    23:00 +22°C° 0.8 mm 8 mps 742 mmHg 76%

    25 March, Monday

    Time Temperature Precipitation Wind Pressure Humidity
    00:00 +23°C° 0.8 mm 8 mps 741 mmHg 76%
    01:00 +23°C° 0.8 mm 8 mps 741 mmHg 76%
    02:00 +21°C° 0.4 mm 8 mps 741 mmHg 71%
    03:00 +20°C° 0.4 mm 7 mps 741 mmHg 66%
    04:00 +17°C° 0.4 mm 7 mps 741 mmHg 61%
    05:00 +16°C° 0 mm 7 mps 743 mmHg 59%
    06:00 +15°C° 0 mm 7 mps 744 mmHg 57%
    07:00 +14°C° 0 mm 6 mps 745 mmHg 55%
    08:00 +15°C° 0 mm 7 mps 746 mmHg 49%
    09:00 +16°C° 0 mm 7 mps 746 mmHg 43%
    10:00 +16°C° 0 mm 8 mps 747 mmHg 37%
    11:00 +16°C° 0 mm 8 mps 747 mmHg 36%
    12:00 +17°C° 0 mm 8 mps 747 mmHg 35%
    13:00 +17°C° 0 mm 8 mps 747 mmHg 34%
    14:00 +17°C° 0 mm 8 mps 747 mmHg 33%
    15:00 +17°C° 0 mm 8 mps 747 mmHg 33%
    16:00 +17°C° 0 mm 7 mps 747 mmHg 33%
    17:00 +16°C° 0 mm 6 mps 748 mmHg 35%
    18:00 +15°C° 0 mm 4 mps 748 mmHg 38%
    19:00 +13°C° 0 mm 3 mps 749 mmHg 40%
    20:00 +13°C° 0 mm 3 mps 750 mmHg 42%
    21:00 +12°C° 0 mm 3 mps 750 mmHg 43%
    22:00 +12°C° 0 mm 3 mps 751 mmHg 45%
    23:00 +11°C° 0 mm 3 mps 751 mmHg 47%
    Show more